CYAZ

Tofino/Long Beach  Airport

Tofino, British Columbia, Canada
Issued Wind Visibility Ceiling Temperature Dew Point Humidity Barometer
Nov-18
01:00 UTC
090°
3 KTS
15 miles Overcast
4,300' AGL
C
43° F
C
41° F
93% 30.15" Hg
1021.2 hPa
VFR
Nov-18
00:00 UTC
090°
4 KTS
15 miles Broken
5,400' AGL
C
45° F
C
41° F
87% 30.14" Hg
1020.8 hPa
VFR
Nov-17
23:00 UTC
140°
3 KTS
15 miles Broken
5,500' AGL
C
46° F
C
37° F
71% 30.12" Hg
1020.3 hPa
VFR
Nov-17
22:00 UTC
170°
4 KTS
15 miles Broken
5,200' AGL
C
46° F
C
39° F
76% 30.11" Hg
1019.7 hPa
VFR
Nov-17
21:00 UTC
140°
4 KTS
15 miles Broken
14,000' AGL
C
46° F
C
41° F
82% 30.09" Hg
1019.1 hPa
VFR
Nov-17
20:00 UTC
Varies @2 KTS 15 miles Broken
12,000' AGL
C
45° F
C
43° F
93% 30.07" Hg
1018.4 hPa
VFR
Nov-17
19:00 UTC
110°
2 KTS
15 miles Broken
14,000' AGL
C
41° F
C
41° F
100% 30.05" Hg
1017.7 hPa
VFR
Nov-17
18:00 UTC
15 miles Broken
24,000' AGL
C
39° F
C
39° F
100% 30.01" Hg
1016.6 hPa
VFR
Nov-17
17:00 UTC
15 miles Broken
17,000' AGL
C
34° F
C
34° F
100% 29.98" Hg
1015.4 hPa
VFR
Nov-17
16:00 UTC
15 miles Broken
25,000' AGL
      29.94" Hg
1014.2 hPa
VFR
Nov-17
15:00 UTC
050°
2 KTS
5 miles         29.9" Hg
1012.9 hPa
MVFR